contact:dominique.lefevre@mio.osupytheas.fr, maurice.libes@osupytheas.fr, didier.mallarino@osupytheas.fr
Project:EMSO http://www.emso-fr.org/EMSO-France
Depth: 2436.0 m
Title:EMSO Ligure Ouest : Data MII capteur MICROCAT
DateTime_Computer,Latitude,Longitude,Temperature,Conductivity,Pressure,DateTime_Instrument
DateTime_Computer,Latitude,Longitude,degC,S m-1,dbar,DateTime_Instrument
2021-10-12T00:01:09Z,42.805,6.029,13.3008,4.60018,2470.45,2021-10-12T02:02:33Z
2021-10-12T00:04:12Z,42.805,6.029,13.3015,4.60028,2470.437,2021-10-12T02:05:36Z
2021-10-12T00:07:16Z,42.805,6.029,13.3008,4.60030,2470.46,2021-10-12T02:08:39Z
2021-10-12T00:10:19Z,42.805,6.029,13.3009,4.60029,2470.437,2021-10-12T02:11:42Z
2021-10-12T00:13:22Z,42.805,6.029,13.3019,4.60019,2470.437,2021-10-12T02:14:45Z
2021-10-12T00:16:25Z,42.805,6.029,13.3008,4.60039,2470.45,2021-10-12T02:17:48Z
2021-10-12T00:19:28Z,42.805,6.029,13.3005,4.60052,2470.437,2021-10-12T02:20:51Z
2021-10-12T00:22:31Z,42.805,6.029,13.3008,4.60023,2470.353,2021-10-12T02:23:54Z
2021-10-12T00:25:34Z,42.805,6.029,13.3015,4.60019,2470.46,2021-10-12T02:26:57Z
2021-10-12T00:28:37Z,42.805,6.029,13.3017,4.60026,2470.437,2021-10-12T02:30:01Z
2021-10-12T00:31:41Z,42.805,6.029,13.3016,4.60035,2470.427,2021-10-12T02:33:04Z
2021-10-12T00:34:44Z,42.805,6.029,13.3021,4.60038,2470.427,2021-10-12T02:36:07Z
2021-10-12T00:37:47Z,42.805,6.029,13.3005,4.60029,2470.413,2021-10-12T02:39:10Z
2021-10-12T00:40:50Z,42.805,6.029,13.3014,4.60031,2470.437,2021-10-12T02:42:13Z
2021-10-12T00:43:53Z,42.805,6.029,13.3006,4.60028,2470.427,2021-10-12T02:45:16Z
2021-10-12T00:46:56Z,42.805,6.029,13.3014,4.60031,2470.427,2021-10-12T02:48:19Z
2021-10-12T00:49:59Z,42.805,6.029,13.3005,4.60021,2470.39,2021-10-12T02:51:22Z
2021-10-12T00:53:02Z,42.805,6.029,13.3023,4.60025,2470.427,2021-10-12T02:54:26Z
2021-10-12T00:56:06Z,42.805,6.029,13.3013,4.60026,2470.404,2021-10-12T02:57:29Z
2021-10-12T00:59:09Z,42.805,6.029,13.3016,4.60031,2470.427,2021-10-12T03:00:32Z
2021-10-12T01:02:12Z,42.805,6.029,13.3018,4.60033,2470.427,2021-10-12T03:03:35Z
2021-10-12T01:05:15Z,42.805,6.029,13.3007,4.60027,2470.39,2021-10-12T03:06:38Z
2021-10-12T01:08:18Z,42.805,6.029,13.3008,4.60028,2470.404,2021-10-12T03:09:41Z
2021-10-12T01:11:21Z,42.805,6.029,13.3014,4.60029,2470.427,2021-10-12T03:12:44Z
2021-10-12T01:14:24Z,42.805,6.029,13.3008,4.60029,2470.427,2021-10-12T03:15:47Z
2021-10-12T01:17:27Z,42.805,6.029,13.3014,4.60027,2470.366,2021-10-12T03:18:51Z
2021-10-12T01:20:30Z,42.805,6.029,13.3019,4.60029,2470.427,2021-10-12T03:21:54Z
2021-10-12T01:23:34Z,42.805,6.029,13.3018,4.60032,2470.427,2021-10-12T03:24:57Z
2021-10-12T01:26:37Z,42.805,6.029,13.3009,4.60033,2470.39,2021-10-12T03:28:00Z
2021-10-12T01:29:40Z,42.805,6.029,13.3019,4.60026,2470.38,2021-10-12T03:31:03Z
2021-10-12T01:32:43Z,42.805,6.029,13.3023,4.60035,2470.413,2021-10-12T03:34:06Z
2021-10-12T01:35:46Z,42.805,6.029,13.3029,4.60031,2470.39,2021-10-12T03:37:09Z
2021-10-12T01:38:49Z,42.805,6.029,13.3016,4.60034,2470.413,2021-10-12T03:40:12Z
2021-10-12T01:41:52Z,42.805,6.029,13.3013,4.60031,2470.39,2021-10-12T03:43:15Z
2021-10-12T01:44:55Z,42.805,6.029,13.3013,4.60028,2470.404,2021-10-12T03:46:19Z
2021-10-12T01:47:59Z,42.805,6.029,13.3007,4.60030,2470.413,2021-10-12T03:49:22Z
2021-10-12T01:51:02Z,42.805,6.029,13.3014,4.60031,2470.404,2021-10-12T03:52:25Z
2021-10-12T01:54:05Z,42.805,6.029,13.3010,4.60031,2470.343,2021-10-12T03:55:28Z
2021-10-12T01:57:08Z,42.805,6.029,13.3012,4.60027,2470.413,2021-10-12T03:58:31Z
2021-10-12T02:00:11Z,42.805,6.029,13.3014,4.60026,2470.404,2021-10-12T04:01:34Z
2021-10-12T02:03:14Z,42.805,6.029,13.3015,4.60035,2470.404,2021-10-12T04:04:37Z
2021-10-12T02:06:17Z,42.805,6.029,13.3010,4.60023,2470.38,2021-10-12T04:07:40Z
2021-10-12T02:09:20Z,42.805,6.029,13.3021,4.60031,2470.404,2021-10-12T04:10:44Z
2021-10-12T02:12:24Z,42.805,6.029,13.3015,4.60030,2470.404,2021-10-12T04:13:47Z
2021-10-12T02:15:27Z,42.805,6.029,13.3011,4.60033,2470.39,2021-10-12T04:16:50Z
2021-10-12T02:18:30Z,42.805,6.029,13.3019,4.60028,2470.39,2021-10-12T04:19:53Z
2021-10-12T02:21:33Z,42.805,6.029,13.3017,4.60032,2470.39,2021-10-12T04:22:56Z
2021-10-12T02:24:36Z,42.805,6.029,13.3010,4.60029,2470.39,2021-10-12T04:25:59Z
2021-10-12T02:27:39Z,42.805,6.029,13.3006,4.60026,2470.404,2021-10-12T04:29:02Z
2021-10-12T02:30:42Z,42.805,6.029,13.3009,4.60021,2470.343,2021-10-12T04:32:05Z
2021-10-12T02:33:45Z,42.805,6.029,13.3014,4.60032,2470.39,2021-10-12T04:35:09Z
2021-10-12T02:36:49Z,42.805,6.029,13.3009,4.60027,2470.404,2021-10-12T04:38:12Z
2021-10-12T02:39:52Z,42.805,6.029,13.3009,4.60035,2470.357,2021-10-12T04:41:15Z
2021-10-12T02:42:55Z,42.805,6.029,13.3009,4.60024,2470.38,2021-10-12T04:44:18Z
2021-10-12T02:45:58Z,42.805,6.029,13.3012,4.60029,2470.404,2021-10-12T04:47:21Z
2021-10-12T02:49:01Z,42.805,6.029,13.3018,4.60042,2470.343,2021-10-12T04:50:24Z
2021-10-12T02:52:04Z,42.805,6.029,13.3015,4.60033,2470.357,2021-10-12T04:53:27Z
2021-10-12T02:55:07Z,42.805,6.029,13.3025,4.60036,2470.38,2021-10-12T04:56:30Z
2021-10-12T02:58:10Z,42.805,6.029,13.3013,4.60027,2470.38,2021-10-12T04:59:34Z
2021-10-12T03:01:14Z,42.805,6.029,13.3019,4.60031,2470.366,2021-10-12T05:02:37Z
2021-10-12T03:04:17Z,42.805,6.029,13.3024,4.60031,2470.343,2021-10-12T05:05:40Z
2021-10-12T03:07:20Z,42.805,6.029,13.3010,4.60024,2470.38,2021-10-12T05:08:43Z
2021-10-12T03:10:23Z,42.805,6.029,13.3021,4.60034,2470.343,2021-10-12T05:11:46Z
2021-10-12T03:13:26Z,42.805,6.029,13.3015,4.60024,2470.357,2021-10-12T05:14:49Z
2021-10-12T03:16:29Z,42.805,6.029,13.3021,4.60029,2470.343,2021-10-12T05:17:52Z
2021-10-12T03:19:32Z,42.805,6.029,13.3018,4.60024,2470.38,2021-10-12T05:20:55Z
2021-10-12T03:22:35Z,42.805,6.029,13.3021,4.60032,2470.334,2021-10-12T05:23:59Z
2021-10-12T03:25:39Z,42.805,6.029,13.3016,4.60040,2470.366,2021-10-12T05:27:02Z
2021-10-12T03:28:42Z,42.805,6.029,13.3019,4.60032,2470.343,2021-10-12T05:30:05Z
2021-10-12T03:31:45Z,42.805,6.029,13.3019,4.60026,2470.343,2021-10-12T05:33:08Z
2021-10-12T03:34:48Z,42.805,6.029,13.3021,4.60029,2470.366,2021-10-12T05:36:11Z
2021-10-12T03:37:51Z,42.805,6.029,13.3014,4.60021,2470.343,2021-10-12T05:39:14Z
2021-10-12T03:40:54Z,42.805,6.029,13.3011,4.60029,2470.32,2021-10-12T05:42:17Z
2021-10-12T03:43:57Z,42.805,6.029,13.3026,4.60027,2470.357,2021-10-12T05:45:20Z
2021-10-12T03:47:00Z,42.805,6.029,13.3021,4.60052,2470.357,2021-10-12T05:48:24Z
2021-10-12T03:50:04Z,42.805,6.029,13.3021,4.60026,2470.357,2021-10-12T05:51:27Z
2021-10-12T03:53:07Z,42.805,6.029,13.3024,4.60040,2470.343,2021-10-12T05:54:30Z
2021-10-12T03:56:10Z,42.805,6.029,13.3028,4.60029,2470.366,2021-10-12T05:57:33Z
2021-10-12T03:59:13Z,42.805,6.029,13.3023,4.60039,2470.366,2021-10-12T06:00:36Z
2021-10-12T04:02:16Z,42.805,6.029,13.3025,4.60029,2470.334,2021-10-12T06:03:39Z
2021-10-12T04:05:19Z,42.805,6.029,13.3026,4.60031,2470.343,2021-10-12T06:06:42Z
2021-10-12T04:08:22Z,42.805,6.029,13.3012,4.60026,2470.357,2021-10-12T06:09:45Z
2021-10-12T04:11:25Z,42.805,6.029,13.3017,4.60029,2470.357,2021-10-12T06:12:49Z
2021-10-12T04:14:29Z,42.805,6.029,13.3019,4.60031,2470.38,2021-10-12T06:15:52Z
2021-10-12T04:17:32Z,42.805,6.029,13.3015,4.60031,2470.357,2021-10-12T06:18:55Z
2021-10-12T04:20:35Z,42.805,6.029,13.3020,4.60039,2470.343,2021-10-12T06:21:58Z
2021-10-12T04:23:38Z,42.805,6.029,13.3024,4.60037,2470.334,2021-10-12T06:25:01Z
2021-10-12T04:26:41Z,42.805,6.029,13.3026,4.60029,2470.334,2021-10-12T06:28:04Z
2021-10-12T04:29:44Z,42.805,6.029,13.3019,4.60034,2470.32,2021-10-12T06:31:07Z
2021-10-12T04:32:47Z,42.805,6.029,13.3011,4.60023,2470.343,2021-10-12T06:34:10Z
2021-10-12T04:35:50Z,42.805,6.029,13.3014,4.60028,2470.32,2021-10-12T06:37:14Z
2021-10-12T04:38:53Z,42.805,6.029,13.3036,4.60033,2470.334,2021-10-12T06:40:17Z
2021-10-12T04:41:57Z,42.805,6.029,13.3011,4.60039,2470.334,2021-10-12T06:43:20Z
2021-10-12T04:45:00Z,42.805,6.029,13.3026,4.60035,2470.334,2021-10-12T06:46:23Z
2021-10-12T04:48:03Z,42.805,6.029,13.3018,4.60034,2470.343,2021-10-12T06:49:26Z
2021-10-12T04:51:06Z,42.805,6.029,13.3014,4.60026,2470.32,2021-10-12T06:52:29Z
2021-10-12T04:54:09Z,42.805,6.029,13.3017,4.60029,2470.297,2021-10-12T06:55:32Z
2021-10-12T04:57:12Z,42.805,6.029,13.3018,4.60029,2470.32,2021-10-12T06:58:35Z
2021-10-12T05:00:15Z,42.805,6.029,13.3019,4.60036,2470.343,2021-10-12T07:01:39Z
2021-10-12T05:03:18Z,42.805,6.029,13.3017,4.60033,2470.334,2021-10-12T07:04:42Z
2021-10-12T05:06:22Z,42.805,6.029,13.3011,4.60024,2470.357,2021-10-12T07:07:45Z
2021-10-12T05:09:25Z,42.805,6.029,13.3015,4.60029,2470.334,2021-10-12T07:10:48Z
2021-10-12T05:12:28Z,42.805,6.029,13.3015,4.60029,2470.32,2021-10-12T07:13:51Z
2021-10-12T05:15:31Z,42.805,6.029,13.3017,4.60026,2470.357,2021-10-12T07:16:54Z
2021-10-12T05:18:34Z,42.805,6.029,13.3013,4.60023,2470.334,2021-10-12T07:19:57Z
2021-10-12T05:21:37Z,42.805,6.029,13.3020,4.60029,2470.31,2021-10-12T07:23:00Z
2021-10-12T05:24:40Z,42.805,6.029,13.3013,4.60029,2470.334,2021-10-12T07:26:03Z
2021-10-12T05:27:43Z,42.805,6.029,13.3011,4.60024,2470.343,2021-10-12T07:29:07Z
2021-10-12T05:30:47Z,42.805,6.029,13.3009,4.60021,2470.31,2021-10-12T07:32:10Z
2021-10-12T05:33:50Z,42.805,6.029,13.3007,4.60036,2470.32,2021-10-12T07:35:13Z
2021-10-12T05:36:53Z,42.805,6.029,13.3019,4.60024,2470.32,2021-10-12T07:38:16Z
2021-10-12T05:39:56Z,42.805,6.029,13.3018,4.60028,2470.32,2021-10-12T07:41:19Z
2021-10-12T05:42:59Z,42.805,6.029,13.3016,4.60031,2470.334,2021-10-12T07:44:22Z
2021-10-12T05:46:02Z,42.805,6.029,13.3016,4.60029,2470.357,2021-10-12T07:47:25Z
2021-10-12T05:49:05Z,42.805,6.029,13.3015,4.60037,2470.334,2021-10-12T07:50:28Z
2021-10-12T05:52:08Z,42.805,6.029,13.3011,4.60039,2470.343,2021-10-12T07:53:32Z
2021-10-12T05:55:12Z,42.805,6.029,13.3010,4.60023,2470.334,2021-10-12T07:56:35Z
2021-10-12T05:58:15Z,42.805,6.029,13.3015,4.60031,2470.32,2021-10-12T07:59:38Z
2021-10-12T06:01:18Z,42.805,6.029,13.3011,4.60031,2470.32,2021-10-12T08:02:41Z
2021-10-12T06:04:21Z,42.805,6.029,13.3018,4.60029,2470.33,2021-10-12T08:05:44Z
2021-10-12T06:07:24Z,42.805,6.029,13.3014,4.60031,2470.343,2021-10-12T08:08:47Z
2021-10-12T06:10:27Z,42.805,6.029,13.3016,4.60028,2470.32,2021-10-12T08:11:50Z
2021-10-12T06:13:30Z,42.805,6.029,13.3021,4.60035,2470.32,2021-10-12T08:14:53Z
2021-10-12T06:16:33Z,42.805,6.029,13.3019,4.60031,2470.334,2021-10-12T08:17:57Z
2021-10-12T06:19:37Z,42.805,6.029,13.3025,4.60023,2470.343,2021-10-12T08:21:00Z
2021-10-12T06:22:40Z,42.805,6.029,13.3025,4.60031,2470.32,2021-10-12T08:24:03Z
2021-10-12T06:25:43Z,42.805,6.029,13.3017,4.60019,2470.334,2021-10-12T08:27:06Z
2021-10-12T06:28:46Z,42.805,6.029,13.3019,4.60029,2470.31,2021-10-12T08:30:09Z
2021-10-12T06:31:49Z,42.805,6.029,13.3023,4.60029,2470.297,2021-10-12T08:33:12Z
2021-10-12T06:34:52Z,42.805,6.029,13.3013,4.60032,2470.357,2021-10-12T08:36:15Z
2021-10-12T06:37:55Z,42.805,6.029,13.3022,4.60036,2470.32,2021-10-12T08:39:18Z
2021-10-12T06:40:58Z,42.805,6.029,13.3024,4.60039,2470.32,2021-10-12T08:42:22Z
2021-10-12T06:44:02Z,42.805,6.029,13.3021,4.60032,2470.357,2021-10-12T08:45:25Z
2021-10-12T06:47:05Z,42.805,6.029,13.3026,4.60029,2470.334,2021-10-12T08:48:28Z
2021-10-12T06:50:08Z,42.805,6.029,13.3024,4.60028,2470.334,2021-10-12T08:51:31Z
2021-10-12T06:53:11Z,42.805,6.029,13.3019,4.60032,2470.38,2021-10-12T08:54:34Z
2021-10-12T06:56:14Z,42.805,6.029,13.3020,4.60028,2470.343,2021-10-12T08:57:37Z
2021-10-12T06:59:17Z,42.805,6.029,13.3021,4.60030,2470.32,2021-10-12T09:00:40Z
2021-10-12T07:02:20Z,42.805,6.029,13.3022,4.60031,2470.343,2021-10-12T09:03:43Z
2021-10-12T07:05:23Z,42.805,6.029,13.3015,4.60030,2470.38,2021-10-12T09:06:47Z
2021-10-12T07:08:27Z,42.805,6.029,13.3019,4.60032,2470.38,2021-10-12T09:09:50Z
2021-10-12T07:11:30Z,42.805,6.029,13.3033,4.60026,2470.38,2021-10-12T09:12:53Z
2021-10-12T07:14:33Z,42.805,6.029,13.3029,4.60033,2470.366,2021-10-12T09:15:56Z
2021-10-12T07:17:36Z,42.805,6.029,13.3016,4.60038,2470.32,2021-10-12T09:18:59Z
2021-10-12T07:20:39Z,42.805,6.029,13.3019,4.60031,2470.366,2021-10-12T09:22:02Z
2021-10-12T07:23:42Z,42.805,6.029,13.3028,4.60031,2470.38,2021-10-12T09:25:05Z
2021-10-12T07:26:45Z,42.805,6.029,13.3021,4.60029,2470.38,2021-10-12T09:28:08Z
2021-10-12T07:29:48Z,42.805,6.029,13.3016,4.60036,2470.404,2021-10-12T09:31:12Z
2021-10-12T07:32:51Z,42.805,6.029,13.3021,4.60039,2470.38,2021-10-12T09:34:15Z
2021-10-12T07:35:55Z,42.805,6.029,13.3027,4.60043,2470.38,2021-10-12T09:37:18Z
2021-10-12T07:38:58Z,42.805,6.029,13.3023,4.60029,2470.38,2021-10-12T09:40:21Z
2021-10-12T07:42:01Z,42.805,6.029,13.3032,4.60033,2470.357,2021-10-12T09:43:24Z
2021-10-12T07:45:04Z,42.805,6.029,13.3027,4.60036,2470.343,2021-10-12T09:46:27Z
2021-10-12T07:48:07Z,42.805,6.029,13.3026,4.60038,2470.38,2021-10-12T09:49:30Z
2021-10-12T07:51:10Z,42.805,6.029,13.3031,4.60027,2470.38,2021-10-12T09:52:33Z
2021-10-12T07:54:13Z,42.805,6.029,13.3026,4.60035,2470.39,2021-10-12T09:55:37Z
2021-10-12T07:57:16Z,42.805,6.029,13.3029,4.60042,2470.39,2021-10-12T09:58:40Z
2021-10-12T08:00:20Z,42.805,6.029,13.3033,4.60031,2470.39,2021-10-12T10:01:43Z
2021-10-12T08:03:23Z,42.805,6.029,13.3027,4.60029,2470.404,2021-10-12T10:04:46Z
2021-10-12T08:06:26Z,42.805,6.029,13.3024,4.60035,2470.404,2021-10-12T10:07:49Z
2021-10-12T08:09:29Z,42.805,6.029,13.3014,4.60033,2470.39,2021-10-12T10:10:52Z
2021-10-12T08:12:32Z,42.805,6.029,13.3024,4.60031,2470.39,2021-10-12T10:13:55Z
2021-10-12T08:15:35Z,42.805,6.029,13.3023,4.60044,2470.427,2021-10-12T10:16:58Z
2021-10-12T08:18:38Z,42.805,6.029,13.3033,4.60034,2470.39,2021-10-12T10:20:02Z
2021-10-12T08:21:41Z,42.805,6.029,13.3031,4.60033,2470.39,2021-10-12T10:23:05Z
2021-10-12T08:24:45Z,42.805,6.029,13.3024,4.60025,2470.45,2021-10-12T10:26:08Z
2021-10-12T08:27:48Z,42.805,6.029,13.3028,4.60043,2470.45,2021-10-12T10:29:11Z
2021-10-12T08:30:51Z,42.805,6.029,13.3020,4.60025,2470.413,2021-10-12T10:32:14Z
2021-10-12T08:33:54Z,42.805,6.029,13.3018,4.60029,2470.45,2021-10-12T10:35:17Z
2021-10-12T08:36:57Z,42.805,6.029,13.3027,4.60039,2470.427,2021-10-12T10:38:20Z
2021-10-12T08:40:00Z,42.805,6.029,13.3030,4.60035,2470.437,2021-10-12T10:41:23Z
2021-10-12T08:43:03Z,42.805,6.029,13.3023,4.60043,2470.413,2021-10-12T10:44:27Z
2021-10-12T08:46:06Z,42.805,6.029,13.3012,4.60033,2470.427,2021-10-12T10:47:30Z
2021-10-12T08:49:10Z,42.805,6.029,13.3018,4.60033,2470.413,2021-10-12T10:50:33Z
2021-10-12T08:52:13Z,42.805,6.029,13.3026,4.60041,2470.437,2021-10-12T10:53:36Z
2021-10-12T08:55:16Z,42.805,6.029,13.3027,4.60033,2470.437,2021-10-12T10:56:39Z
2021-10-12T08:58:19Z,42.805,6.029,13.3019,4.60035,2470.437,2021-10-12T10:59:42Z
2021-10-12T09:01:22Z,42.805,6.029,13.3017,4.60036,2470.45,2021-10-12T11:02:45Z
2021-10-12T09:04:25Z,42.805,6.029,13.3021,4.60037,2470.437,2021-10-12T11:05:48Z
2021-10-12T09:07:28Z,42.805,6.029,13.3025,4.60031,2470.45,2021-10-12T11:08:52Z
2021-10-12T09:10:31Z,42.805,6.029,13.3037,4.60026,2470.474,2021-10-12T11:11:55Z
2021-10-12T09:13:35Z,42.805,6.029,13.3021,4.60044,2470.45,2021-10-12T11:14:58Z
2021-10-12T09:16:38Z,42.805,6.029,13.3026,4.60036,2470.45,2021-10-12T11:18:01Z
2021-10-12T09:19:41Z,42.805,6.029,13.3043,4.60049,2470.474,2021-10-12T11:21:04Z
2021-10-12T09:22:44Z,42.805,6.029,13.3039,4.60041,2470.483,2021-10-12T11:24:07Z
2021-10-12T09:25:47Z,42.805,6.029,13.3021,4.60039,2470.474,2021-10-12T11:27:10Z
2021-10-12T09:28:50Z,42.805,6.029,13.3029,4.60054,2470.483,2021-10-12T11:30:13Z
2021-10-12T09:31:53Z,42.805,6.029,13.3042,4.60037,2470.45,2021-10-12T11:33:17Z
2021-10-12T09:34:57Z,42.805,6.029,13.3045,4.60040,2470.483,2021-10-12T11:36:20Z
2021-10-12T09:38:00Z,42.805,6.029,13.3034,4.60044,2470.474,2021-10-12T11:39:23Z
2021-10-12T09:41:03Z,42.805,6.029,13.3028,4.60040,2470.497,2021-10-12T11:42:26Z
2021-10-12T09:44:06Z,42.805,6.029,13.3033,4.60042,2470.474,2021-10-12T11:45:29Z
2021-10-12T09:47:09Z,42.805,6.029,13.3046,4.60036,2470.46,2021-10-12T11:48:32Z
2021-10-12T09:50:12Z,42.805,6.029,13.3044,4.60038,2470.474,2021-10-12T11:51:35Z
2021-10-12T09:53:15Z,42.805,6.029,13.3036,4.60039,2470.474,2021-10-12T11:54:38Z
2021-10-12T09:56:18Z,42.805,6.029,13.3035,4.60045,2470.483,2021-10-12T11:57:42Z
2021-10-12T09:59:22Z,42.805,6.029,13.3041,4.60033,2470.46,2021-10-12T12:00:45Z
2021-10-12T10:02:25Z,42.805,6.029,13.3026,4.60041,2470.46,2021-10-12T12:03:48Z
2021-10-12T10:05:28Z,42.805,6.029,13.3029,4.60027,2470.483,2021-10-12T12:06:51Z
2021-10-12T10:08:31Z,42.805,6.029,13.3033,4.60040,2470.474,2021-10-12T12:09:54Z
2021-10-12T10:11:34Z,42.805,6.029,13.3035,4.60039,2470.497,2021-10-12T12:12:57Z
2021-10-12T10:14:37Z,42.805,6.029,13.3042,4.60045,2470.474,2021-10-12T12:16:00Z
2021-10-12T10:17:40Z,42.805,6.029,13.3029,4.60049,2470.497,2021-10-12T12:19:04Z
2021-10-12T10:20:43Z,42.805,6.029,13.3034,4.60049,2470.474,2021-10-12T12:22:07Z
2021-10-12T10:23:47Z,42.805,6.029,13.3033,4.60038,2470.46,2021-10-12T12:25:10Z
2021-10-12T10:26:50Z,42.805,6.029,13.3017,4.60041,2470.507,2021-10-12T12:28:13Z
2021-10-12T10:29:53Z,42.805,6.029,13.3029,4.60044,2470.483,2021-10-12T12:31:16Z
2021-10-12T10:32:56Z,42.805,6.029,13.3031,4.60031,2470.483,2021-10-12T12:34:19Z
2021-10-12T10:35:59Z,42.805,6.029,13.3025,4.60064,2470.52,2021-10-12T12:37:22Z
2021-10-12T10:39:02Z,42.805,6.029,13.3017,4.60042,2470.507,2021-10-12T12:40:25Z
2021-10-12T10:42:05Z,42.805,6.029,13.3035,4.60040,2470.497,2021-10-12T12:43:29Z
2021-10-12T10:45:08Z,42.805,6.029,13.3030,4.60058,2470.483,2021-10-12T12:46:32Z
2021-10-12T10:48:12Z,42.805,6.029,13.3046,4.60063,2470.507,2021-10-12T12:49:35Z
2021-10-12T10:51:15Z,42.805,6.029,13.3037,4.60063,2470.483,2021-10-12T12:52:38Z
2021-10-12T10:54:18Z,42.805,6.029,13.3049,4.60045,2470.497,2021-10-12T12:55:41Z
2021-10-12T10:57:21Z,42.805,6.029,13.3022,4.60043,2470.474,2021-10-12T12:58:44Z
2021-10-12T11:00:24Z,42.805,6.029,13.3022,4.60048,2470.497,2021-10-12T13:01:47Z
2021-10-12T11:03:27Z,42.805,6.029,13.3024,4.60036,2470.483,2021-10-12T13:04:50Z
2021-10-12T11:06:30Z,42.805,6.029,13.3029,4.60049,2470.46,2021-10-12T13:07:54Z
2021-10-12T11:09:33Z,42.805,6.029,13.3054,4.60039,2470.483,2021-10-12T13:10:57Z
2021-10-12T11:12:37Z,42.805,6.029,13.3011,4.60026,2470.507,2021-10-12T13:14:00Z
2021-10-12T11:15:40Z,42.805,6.029,13.3038,4.60034,2470.483,2021-10-12T13:17:03Z
2021-10-12T11:18:43Z,42.805,6.029,13.3032,4.60038,2470.483,2021-10-12T13:20:06Z
2021-10-12T11:21:46Z,42.805,6.029,13.3034,4.60040,2470.483,2021-10-12T13:23:09Z
2021-10-12T11:24:49Z,42.805,6.029,13.3041,4.60051,2470.46,2021-10-12T13:26:12Z
2021-10-12T11:27:52Z,42.805,6.029,13.3029,4.60043,2470.474,2021-10-12T13:29:15Z
2021-10-12T11:30:55Z,42.805,6.029,13.3039,4.60036,2470.497,2021-10-12T13:32:19Z
2021-10-12T11:33:58Z,42.805,6.029,13.3049,4.60036,2470.507,2021-10-12T13:35:22Z
2021-10-12T11:37:02Z,42.805,6.029,13.3031,4.60032,2470.497,2021-10-12T13:38:25Z
2021-10-12T11:40:05Z,42.805,6.029,13.3019,4.60036,2470.483,2021-10-12T13:41:28Z
2021-10-12T11:43:08Z,42.805,6.029,13.3035,4.60041,2470.497,2021-10-12T13:44:31Z
2021-10-12T11:46:11Z,42.805,6.029,13.3034,4.60045,2470.497,2021-10-12T13:47:34Z
2021-10-12T11:49:14Z,42.805,6.029,13.3024,4.60052,2470.483,2021-10-12T13:50:37Z
2021-10-12T11:52:17Z,42.805,6.029,13.3018,4.60044,2470.497,2021-10-12T13:53:40Z
2021-10-12T11:55:20Z,42.805,6.029,13.3034,4.60054,2470.483,2021-10-12T13:56:44Z
2021-10-12T11:58:24Z,42.805,6.029,13.3027,4.60047,2470.497,2021-10-12T13:59:47Z
2021-10-12T12:01:27Z,42.805,6.029,13.3023,4.60053,2470.497,2021-10-12T14:02:50Z
2021-10-12T12:04:30Z,42.805,6.029,13.3019,4.60053,2470.474,2021-10-12T14:05:53Z
2021-10-12T12:07:33Z,42.805,6.029,13.3029,4.60031,2470.497,2021-10-12T14:08:56Z
2021-10-12T12:10:36Z,42.805,6.029,13.3028,4.60033,2470.507,2021-10-12T14:11:59Z
2021-10-12T12:13:39Z,42.805,6.029,13.3021,4.60069,2470.474,2021-10-12T14:15:02Z
2021-10-12T12:16:42Z,42.805,6.029,13.3031,4.60061,2470.483,2021-10-12T14:18:05Z
2021-10-12T12:19:45Z,42.805,6.029,13.3021,4.60073,2470.497,2021-10-12T14:21:09Z
2021-10-12T12:22:49Z,42.805,6.029,13.3043,4.60037,2470.52,2021-10-12T14:24:12Z
2021-10-12T12:25:52Z,42.805,6.029,13.3010,4.60052,2470.511,2021-10-12T14:27:15Z
2021-10-12T12:28:55Z,42.805,6.029,13.3029,4.60052,2470.544,2021-10-12T14:30:18Z
2021-10-12T12:31:58Z,42.805,6.029,13.3026,4.60053,2470.46,2021-10-12T14:33:21Z
2021-10-12T12:35:01Z,42.805,6.029,13.3029,4.60045,2470.474,2021-10-12T14:36:24Z
2021-10-12T12:38:04Z,42.805,6.029,13.3034,4.60057,2470.507,2021-10-12T14:39:27Z
2021-10-12T12:41:07Z,42.805,6.029,13.3040,4.60040,2470.52,2021-10-12T14:42:31Z
2021-10-12T12:44:10Z,42.805,6.029,13.3018,4.60044,2470.497,2021-10-12T14:45:34Z
2021-10-12T12:47:14Z,42.805,6.029,13.3033,4.60050,2470.483,2021-10-12T14:48:37Z
2021-10-12T12:50:17Z,42.805,6.029,13.3048,4.60036,2470.46,2021-10-12T14:51:40Z
2021-10-12T12:53:20Z,42.805,6.029,13.3034,4.60044,2470.46,2021-10-12T14:54:43Z
2021-10-12T12:56:23Z,42.805,6.029,13.3026,4.60056,2470.497,2021-10-12T14:57:46Z
2021-10-12T12:59:26Z,42.805,6.029,13.3024,4.60062,2470.497,2021-10-12T15:00:49Z
2021-10-12T13:02:29Z,42.805,6.029,13.3030,4.60053,2470.483,2021-10-12T15:03:52Z
2021-10-12T13:05:32Z,42.805,6.029,13.3043,4.60046,2470.497,2021-10-12T15:06:56Z
2021-10-12T13:08:35Z,42.805,6.029,13.3019,4.60067,2470.483,2021-10-12T15:09:59Z
2021-10-12T13:11:39Z,42.805,6.029,13.3039,4.60033,2470.46,2021-10-12T15:13:02Z
2021-10-12T13:14:42Z,42.805,6.029,13.3027,4.60056,2470.497,2021-10-12T15:16:05Z
2021-10-12T13:17:45Z,42.805,6.029,13.3024,4.60046,2470.46,2021-10-12T15:19:08Z
2021-10-12T13:20:48Z,42.805,6.029,13.3017,4.60033,2470.497,2021-10-12T15:22:11Z
2021-10-12T13:23:51Z,42.805,6.029,13.3014,4.60028,2470.497,2021-10-12T15:25:14Z
2021-10-12T13:26:54Z,42.805,6.029,13.3045,4.60042,2470.497,2021-10-12T15:28:17Z
2021-10-12T13:29:57Z,42.805,6.029,13.3015,4.60046,2470.45,2021-10-12T15:31:21Z
2021-10-12T13:33:00Z,42.805,6.029,13.3021,4.60065,2470.46,2021-10-12T15:34:24Z
2021-10-12T13:36:04Z,42.805,6.029,13.3029,4.60039,2470.46,2021-10-12T15:37:27Z
2021-10-12T13:39:07Z,42.805,6.029,13.3017,4.60049,2470.474,2021-10-12T15:40:30Z
2021-10-12T13:42:10Z,42.805,6.029,13.3019,4.60068,2470.474,2021-10-12T15:43:33Z
2021-10-12T13:45:13Z,42.805,6.029,13.3051,4.60039,2470.497,2021-10-12T15:46:36Z
2021-10-12T13:48:16Z,42.805,6.029,13.3021,4.60039,2470.497,2021-10-12T15:49:39Z
2021-10-12T13:51:19Z,42.805,6.029,13.3035,4.60039,2470.437,2021-10-12T15:52:42Z
2021-10-12T13:54:22Z,42.805,6.029,13.3040,4.60065,2470.474,2021-10-12T15:55:46Z
2021-10-12T13:57:26Z,42.805,6.029,13.3031,4.60049,2470.46,2021-10-12T15:58:49Z
2021-10-12T14:00:29Z,42.805,6.029,13.3018,4.60027,2470.483,2021-10-12T16:01:52Z
2021-10-12T14:03:32Z,42.805,6.029,13.3009,4.60037,2470.474,2021-10-12T16:04:55Z
2021-10-12T14:06:35Z,42.805,6.029,13.3048,4.60051,2470.474,2021-10-12T16:07:58Z
2021-10-12T14:09:38Z,42.805,6.029,13.3035,4.60065,2470.46,2021-10-12T16:11:01Z
2021-10-12T14:12:41Z,42.805,6.029,13.3027,4.60074,2470.437,2021-10-12T16:14:04Z
2021-10-12T14:15:44Z,42.805,6.029,13.3015,4.60069,2470.474,2021-10-12T16:17:07Z
2021-10-12T14:18:47Z,42.805,6.029,13.3024,4.60052,2470.474,2021-10-12T16:20:11Z
2021-10-12T14:21:51Z,42.805,6.029,13.3028,4.60021,2470.437,2021-10-12T16:23:14Z
2021-10-12T14:24:54Z,42.805,6.029,13.3036,4.60040,2470.483,2021-10-12T16:26:17Z
2021-10-12T14:27:57Z,42.805,6.029,13.3018,4.60052,2470.474,2021-10-12T16:29:20Z
2021-10-12T14:31:00Z,42.805,6.029,13.3024,4.60042,2470.45,2021-10-12T16:32:23Z
2021-10-12T14:34:03Z,42.805,6.029,13.3020,4.60049,2470.46,2021-10-12T16:35:26Z
2021-10-12T14:37:06Z,42.805,6.029,13.3036,4.60049,2470.52,2021-10-12T16:38:29Z
2021-10-12T14:40:09Z,42.805,6.029,13.3031,4.60053,2470.427,2021-10-12T16:41:33Z
2021-10-12T14:43:12Z,42.805,6.029,13.3026,4.60069,2470.437,2021-10-12T16:44:36Z
2021-10-12T14:46:16Z,42.805,6.029,13.3037,4.60033,2470.427,2021-10-12T16:47:39Z
2021-10-12T14:49:19Z,42.805,6.029,13.3013,4.60047,2470.474,2021-10-12T16:50:42Z
2021-10-12T14:52:22Z,42.805,6.029,13.3017,4.60030,2470.474,2021-10-12T16:53:45Z
2021-10-12T14:55:25Z,42.805,6.029,13.3027,4.60039,2470.399,2021-10-12T16:56:48Z
2021-10-12T14:58:28Z,42.805,6.029,13.3026,4.60047,2470.45,2021-10-12T16:59:51Z
2021-10-12T15:01:31Z,42.805,6.029,13.3041,4.60052,2470.437,2021-10-12T17:02:54Z